Elmira, NY

11:23 AM EDT on September 18, 2019 (GMT -0400)
Elmira-Corning Regional

Weather History for KELM - May, 2019

Change the Weather History Date:

Sunday, May 19, 2019

  Actual Average Record
Temperature  
Mean Temperature 69 °F -  
Max Temperature 88 °F 68 °F 90 °F (1962)
Min Temperature 50 °F 44 °F 28 °F (2005)
Cooling Degree Days 4    
Growing Degree Days 19 (Base 50)    
Moisture  
Dew Point 59 °F    
Average Humidity 64    
Maximum Humidity 89    
Minimum Humidity 45    
Precipitation  
Precipitation 0.00 in - - ()
Sea Level Pressure  
Sea Level Pressure 29.87 in    
Wind  
Wind Speed 4 mph (SW)    
Max Wind Speed 16 mph    
Max Gust Speed 33 mph    
Visibility 10 miles    
Events Thunderstorm    
Averages and records for this station are not official NWS values.
T = Trace of Precipitation, MM = Missing Value Source: NWS Daily Summary

Daily Weather History Graph

Daily Weather History Graph

Search for Another Location

Airport or City:

Astronomy

May. 19, 2019 Rise Set
Actual Time 5:43 AM EDT 8:25 PM EDT
Civil Twilight 5:10 AM EDT 8:58 PM EDT
Nautical Twilight 4:29 AM EDT 9:39 PM EDT
Astronomical Twilight 3:43 AM EDT 10:25 PM EDT
Moon 9:23 PM EDT (5/19) 6:27 AM EDT (5/19)
Length of Visible Light 15h 47m
Length of Day
14h 42m
Full, 99% of the Moon is Illuminated
May 19
Full
May 26
Last Quarter
Jun 3
New
Jun 10
First Quarter
Jun 17
Full

Hourly Weather History & Observations

Time (EDT) Temp. Heat Index Dew Point Humidity Pressure Visibility Wind Dir Wind Speed Gust Speed Precip Events Conditions
12:53 AM 53.1 °F - 46.0 °F 77% 29.98 in 10.0 mi Calm Calm - N/A   Scattered Clouds
1:53 AM 53.1 °F - 48.9 °F 86% 29.98 in 10.0 mi Calm Calm - N/A   Mostly Cloudy
2:53 AM 54.0 °F - 48.0 °F 80% 29.96 in 10.0 mi Calm Calm - N/A   Clear
3:53 AM 50.0 °F - 46.9 °F 89% 29.96 in 10.0 mi Calm Calm - N/A   Clear
4:53 AM 51.1 °F - 48.0 °F 89% 29.95 in 10.0 mi Calm Calm - N/A   Clear
5:53 AM 52.0 °F - 48.0 °F 86% 29.96 in 10.0 mi Calm Calm - N/A   Partly Cloudy
6:53 AM 55.0 °F - 50.0 °F 83% 29.96 in 10.0 mi Calm Calm - N/A   Partly Cloudy
7:53 AM 60.1 °F - 52.0 °F 75% 29.96 in 10.0 mi Calm Calm - N/A   Clear
8:53 AM 69.1 °F - 59.0 °F 70% 29.95 in 10.0 mi East 3.5 mph - N/A   Clear
9:53 AM 75.9 °F - 63.0 °F 64% 29.93 in 10.0 mi SSW 3.5 mph - N/A   Clear
10:53 AM 80.1 °F 81.5 °F 63.0 °F 56% 29.92 in 10.0 mi WSW 4.6 mph - N/A   Mostly Cloudy
11:53 AM 82.9 °F 84.0 °F 63.0 °F 51% 29.90 in 10.0 mi West 6.9 mph - N/A   Mostly Cloudy
12:53 PM 84.9 °F 85.9 °F 63.0 °F 48% 29.86 in 10.0 mi WSW 10.4 mph 16.1 mph N/A   Clear
1:53 PM 87.1 °F 88.3 °F 64.0 °F 46% 29.84 in 10.0 mi SW 12.7 mph 21.9 mph N/A   Partly Cloudy
2:53 PM 88.0 °F 89.3 °F 64.0 °F 45% 29.82 in 10.0 mi SW 11.5 mph 21.9 mph N/A   Partly Cloudy
3:00 PM 88.0 °F 89.3 °F 64.0 °F 45% 29.83 in 10.0 mi SSW 16.1 mph 24.2 mph N/A Thunderstorm Clear
3:32 PM 86.0 °F 87.6 °F 64.9 °F 49% 29.81 in 10.0 mi SSW 15.0 mph 23.0 mph N/A   Partly Cloudy
3:53 PM 87.1 °F 88.9 °F 64.9 °F 48% 29.79 in 10.0 mi SW 11.5 mph - 0.00 in   Mostly Cloudy
4:53 PM 87.1 °F 88.3 °F 64.0 °F 46% 29.77 in 10.0 mi SSW 13.8 mph 25.3 mph N/A   Clear
5:53 PM 82.9 °F 84.0 °F 63.0 °F 51% 29.77 in 10.0 mi South 15.0 mph 33.4 mph N/A   Clear
6:53 PM 80.1 °F 81.7 °F 64.0 °F 58% 29.77 in 10.0 mi SW 13.8 mph 27.6 mph N/A   Partly Cloudy
7:53 PM 78.1 °F - 64.0 °F 62% 29.78 in 10.0 mi SSW 11.5 mph 24.2 mph N/A   Clear
8:53 PM 75.9 °F - 61.0 °F 60% 29.78 in 10.0 mi West 8.1 mph 17.3 mph N/A   Clear
9:53 PM 73.9 °F - 62.1 °F 66% 29.79 in 10.0 mi West 5.8 mph - N/A   Partly Cloudy
10:53 PM 73.0 °F - 63.0 °F 71% 29.77 in 10.0 mi West 8.1 mph - N/A   Partly Cloudy
11:53 PM 73.0 °F - 62.1 °F 68% 29.77 in 10.0 mi West 9.2 mph - N/A   Mostly Cloudy